Location: Newark
(51.3318°N, 0.0053°E)
Time: 14:29:24
(UTC+00:00)

DIWATA 2B (PO-101) - Visible Passes

Search period start: 02 July 2022 00:00
Search period end: 12 July 2022 00:00
Orbit: 585 x 597 km, 98.0° (Epoch: 01 July)

Date Brightness Start Highest point End Pass type
(mag) Time Alt. Az. Time Alt. Az. Time Alt. Az.
02 Jul ? 00:14:13 10° E 00:16:42 15° ENE 00:19:12 10° NNE visible
02 Jul ? 01:47:54 13° S 01:51:42 79° WSW 01:55:56 10° NNW visible
03 Jul ? 00:22:06 10° ESE 00:24:57 18° ENE 00:27:48 10° NNE visible
03 Jul ? 01:56:21 13° S 02:00:02 66° WSW 02:04:15 10° NNW visible
04 Jul ? 00:30:04 10° ESE 00:33:12 21° ENE 00:36:21 10° NNE visible
04 Jul ? 02:04:48 13° S 02:08:23 54° W 02:12:33 10° NNW visible
05 Jul ? 00:38:05 10° ESE 00:41:27 24° ENE 00:44:51 10° N visible
05 Jul ? 02:13:15 13° S 02:16:45 45° W 02:20:50 10° NNW visible
06 Jul ? 00:46:08 10° ESE 00:49:43 28° ENE 00:53:19 10° N visible
06 Jul ? 02:21:43 13° SSW 02:25:07 38° W 02:29:05 10° NNW visible
07 Jul ? 00:54:14 10° SE 00:57:59 32° ENE 01:01:46 10° N visible
07 Jul ? 02:30:10 12° SSW 02:33:30 32° W 02:37:18 10° NNW visible
08 Jul ? 01:02:22 10° SE 01:06:16 38° ENE 01:10:11 10° N visible
08 Jul ? 02:38:37 12° SSW 02:41:54 27° W 02:45:29 10° NW visible
09 Jul ? 01:10:33 10° SE 01:14:33 45° ENE 01:18:36 10° N visible
09 Jul ? 02:47:04 11° SW 02:50:17 23° W 02:53:38 10° NW visible
10 Jul ? 01:18:58 11° SE 01:22:51 54° ENE 01:26:58 10° N visible
10 Jul ? 02:55:39 10° SW 02:58:41 19° W 03:01:44 10° NW visible
10 Jul ? 23:55:40 10° ENE 23:56:27 10° NE 23:57:13 10° NE visible
11 Jul ? 01:27:25 13° SSE 01:31:09 65° ENE 01:35:20 10° N visible
11 Jul ? 03:04:27 10° SW 03:07:06 16° W 03:09:45 10° NW visible
